{"data":{"norad_id":66171,"intl_designator":"2025-240AB","name":"STARLINK-35606","alt_names":[],"object_type":"PAYLOAD","status":"ACTIVE","operator":null,"country":"US","launch_date":"2025-10-25","launch_site_code":"AFWTR","launch_vehicle":null,"mission":null,"orbit_class":"UNKNOWN","rcs_meters":null,"size_class":null,"mass_kg":null,"dimensions":null,"purposes":["comms"],"wikipedia_slug":null,"has_3d_model":false,"image_url":null,"decayed_at":null,"tle_current":{"epoch":"2026-05-25T04:37:51.477024Z","epoch_age_seconds":59189,"freshness":"FRESH","line1":"1 66171U 25240AB  26145.19295691  .00039566  00000+0  11756-2 0  9994","line2":"2 66171  53.1594  66.5844 0001105  88.6151 271.4979 15.34410837 33718","mean_motion":15.34410837,"eccentricity":0.0001105,"inclination_deg":53.1594,"raan_deg":66.5844,"arg_perigee_deg":88.6151,"mean_anomaly_deg":271.4979,"bstar":0.0011756,"rev_number":3371,"period_min":93.847095267876,"perigee_km":461.91512126151,"apogee_km":463.42693983626,"semimajor_km":6840.8080305489,"source":"CELESTRAK","updated_at":"2026-05-25T13:38:21.074245Z"}}}